Tracking 30922 objects as of 2-Jul-2025
HD Live streaming from Space Station
objects crossing your sky now

SL-8 R/B

Track SL-8 R/B now!
10-day predictions


NORAD ID: 18403
Int'l Code: 1987-087B
Perigee: 941.2 km
Apogee: 1,023.7 km
Inclination: 82.9 °
Period: 104.6 minutes
Semi major axis: 7353 km
RCS: 4.8677 m2 (large)
Launch date: October 14, 1987
Source: Commonwealth of Independent States (former USSR) (CIS)
Launch site: PLESETSK MISSILE AND SPACE COMPLEX (PKMTR)

Note: This is a ROCKET BODY
Your satellite tracking list
TITAN 3C TRANSTAGE DEB
Track 1 satellite(s)




NASA's NSSDC Master Catalog

Two Line Element Set (TLE):
1 18403U 87087B   25182.60328603  .00000076  00000-0  62072-4 0  9996
2 18403  82.9180  63.8231 0056125 252.3097 107.1928 13.76790025894049
Source of the keplerian elements: AFSPC